Tracking 18840 objects as of 17-November-2017
HD Live streaming from Space Station
objects crossing your sky now

FENGYUN 1C DEB

Track FENGYUN 1C DEB now!
10-day predictions


NORAD ID: 31816
Int'l Code: 1999-025CHE
Perigee: 850.1 km
Apogee: 1,040.8 km
Inclination: 98.8 °
Period: 103.8 minutes
Semi major axis: 7316 km
RCS: 0.0124 m2 (small)
Launch date: May 10, 1999
Source: People's Republic of China (PRC)
Launch site: Taiyaun Space Center, China (TSC)

Note: This is SATELLITE DEBRIS
aabbcc
Your satellite tracking list
Your tracking list is empty




NASA's NSSDC Master Catalog

Two Line Element Set (TLE):
1 31816U 99025CHE 17320.54853878 +.00000443 +00000-0 +38600-3 0  9996
2 31816 098.8374 168.7268 0130360 266.1513 148.4553 13.87241202527593
Source of the keplerian elements: AFSPC